Notices

What's New in latest Release from April 7th, 2021:

- Updated Glossary, including Speed of Maximum Gust, and Total Hourly Precipitation

- Updated national and regional climate services offices contacts and prices information

- Addition of station inventory lists for 1981-2010, 1971-2000, and 1961-1990 Normals.

If you haven't already, please take our survey and provide feedback about our website: https://eccc.sondage-survey.ca/f/LanguageSelection.aspx?s=442ca660-fcf1-47c0-95a9-59707d6fd709

Hourly Data Report for August 05, 2015

IQALUIT CLIMATE
NUNAVUT

63°44'50.000" N
68°32'40.000" W
33.50 m
2402592
71321
XFB

Download Data

Hourly Data (August 2015)
Hourly Data Report for August 5, 2015
TIME
LST
Temp Definition
°C
Dew Point Definition
°C
Rel Hum Definition
%
Precip. Amount Definition
mm

Wind Dir Definition
10's deg

Wind Spd Definition
km/h
Visibility Definition
km
Stn Press Definition
kPa
Hmdx Definition


Wind Chill Definition


Weather Definition


00:00 2.2 0.9 91 0.0 16 8   101.90     LegendNANA
01:00 2.9 1.2 89 0.0 16 7   101.88     LegendNANA
02:00 3.1 1.3 88 0.0 12 11   101.86     LegendNANA
03:00 2.6 1.0 89 0.0 17 6   101.84     LegendNANA
04:00 1.3 0.6 95 0.0 0 1   101.83     LegendNANA
05:00 3.5 1.1 84 0.0   0   101.80     LegendNANA
06:00 3.2 1.2 87 0.0 24 5   101.78     LegendNANA
07:00 3.5 1.2 85 0.0 23 5   101.77     LegendNANA
08:00 3.8 1.7 86 0.0 15 7   101.74     LegendNANA
09:00 3.8 1.3 84 0.0 16 8   101.72     LegendNANA
10:00 3.8 1.6 86 0.0 14 9   101.68     LegendNANA
11:00 3.6 1.6 87 0.0 15 10   101.63     LegendNANA
12:00 3.8 1.3 84 0.0 14 9   101.59     LegendNANA
13:00 4.5 1.4 80 0.0 16 11   101.57     LegendNANA
14:00 5.6 1.7 76 0.0 14 9   101.54     LegendNANA
15:00 6.9 2.7 75 0.0 15 10   101.51     LegendNANA
16:00 6.6 2.3 74 0.0 14 8   101.48     LegendNANA
17:00 6.0 2.0 76 0.0 15 6   101.46     LegendNANA
18:00 5.7 1.8 76 0.0 13 6   101.44     LegendNANA
19:00 5.3 2.2 81 0.0 15 3   101.41     LegendNANA
20:00 5.4 2.5 82 0.0 22 4   101.37     LegendNANA
21:00 4.2 2.2 87 0.0 12 1   101.37     LegendNANA
22:00 3.8 2.2 90 0.0 20 2   101.34     LegendNANA
23:00 2.8 1.7 92 0.0 31 4   101.31     LegendNANA

Notes on Data Quality.

Legend

  • E = Estimated
  • M = Missing
  • NA = Not Available*
  • [empty] = Indicates an unobserved value
Date modified: